Погода Нижне-Усинское

Погода Нижне-Усинское : погода сейчас, прогноз погоды и архив. Всё, что Вы хотите узнать о погоде Нижне-Усинское!

Поиск расширенной информации на нашем сайте:

Другие новости

Новости СМИ2

Главная страница сайта

Новости сайта

03.07.2017

Напоминаем, что на нашем специализированном сайте Метеоцентр.Азия вы можете получить высокодетализированные автоматические прогнозы погоды по пунктам России, СНГ и мира в авиационном формате (включающие направление и скорость ветра, видимость, явления погоды, количество и форму облачности, нижнюю и верхнюю границу облачности).


Погода Нижне-Усинское - сегодня

Время (UTC), дата Ветер
(°,м/с) 
Видим.   Явления Облачность Т
(°С)
Тd
(°С)
f(%) Тe
(°С)
Pmin
(гПа)
dP
(гПа)
Po
(мм)
O2
(г/м3)
Тmin Tmax R s Состояние
почвы
09 09.12.17 тихо ()   20000 м    ясно 
-17.8 -20.4 80 -18  1045.9  -0.8  719  311           
12 09.12.17 тихо ()   н/о    ясно 
-23.5 -24.7 90 -24  1048  719  318    -15.8       
15 09.12.17 тихо ()   н/о    ясно 
-26.7 -27.9 90 -27  1048.5  -0.6  718  322           
18 09.12.17 тихо ()   н/о    ясно 
-28.2 -30 85 -28  1048.8  -0.3  718  324           
21 09.12.17 тихо ()   н/о    ясно 
-29.7 -31.5 84 -30  1049.1  -0.3  718  326           
00 10.12.17 тихо ()   н/о    ясно 
-30.7 -33 80 -31  1049.8  0.3  718  328  -31.1      13  равномерный
сухой снег
100% 
03 10.12.17 тихо ()   20000 м    9/0 кучево-дожд., средняя, верхняя 
[Cb cap|Ac trans|Ci sp]
-28.8 -30.6 85 -29  1049.2  0.2  718  325           
06 10.12.17 тихо ()   20000 м    8/3 1000 м кучево-дожд., средняя, верхняя 
[Cb cap|Ac trans|Ci sp]
-23.2 -25 85 -23  1045.4  -1.3  717  317           
09 10.12.17 тихо ()   20000 м    8/4 1000 м кучево-дожд., средняя, верхняя 
[Cb cap|Ac trans|Ci sp]
-22.8 -24.7 84 -23  1044.3  -0.8  716  316           
12 10.12.17 тихо ()   н/о    3/3 1000 м 
[Sc]
-26.9 -28.7 85 -27  1044.8  -1  715  322    -22.3       
15 10.12.17 тихо ()   н/о    3/3 1000 м 
[Sc]
-26.8 -28.7 84 -27  1045.3  0.5  716  322           
18 10.12.17 тихо ()   н/о    ясно 
-27.2 -29 85 -27  1044.8  -0.6  715  322           
21 10.12.17 тихо ()   н/о    10/10 2000 м 
[As trans]
-24.1 -26 84 -24  1043.7  715  318           
00 11.12.17 тихо ()   н/о    10/10 2000 м 
[As trans]
-22.2 -24.1 85 -22  1042  -0.8  719  317  -27.8      13  равномерный
сухой снег
100% 
03 11.12.17 тихо ()   20000 м    10/10 1000 м кучево-дожд. 
[Cb cap]
-21 -22.9 85 -21  1041.9  0.3  715  314           
06 11.12.17 тихо ()   20000 м  слаб. снег  10/10 2000 м 
[Ns]
-17.8 -20.4 80 -18  1039.1  -1.6  714  309           
09 11.12.17 тихо ()   20000 м  {снег}  10/10 2000 м 
[As trans]
-16.7 -18.7 84 -17  1038.3  -0.3  714  308           
12 11.12.17 тихо ()   н/о  {снег}  ясно 
-20.9 -21.5 95 -21  1039.8  714  313    -16.6  0.3     
15 11.12.17 тихо ()   н/о    ясно 
-23.2 -24.4 90 -23  1039.5  -1  713  316           
18 11.12.17 тихо ()   н/о  слаб. снег  10/10 2000 м 
[Ns]
-20.4 -21.6 90 -20  1037.2  -1.2  712  312           
21 11.12.17 тихо ()   н/о  слаб. снег  10/10 2000 м 
[Ns]
-19.8 -21 90 -20  1037.2  0.2  712  311           
00 12.12.17 тихо ()   н/о  слаб. снег  10/10 2000 м 
[Ns]
-19.2 -20.4 90 -19  1036.4  -0.8  711  310  -22.3    0.7  15  равномерный
сухой снег
100% 
03 12.12.17 тихо ()   4000 м  слаб. снег  10/10 2000 м 
[Ns]
-18.2 -19.4 90 -18  1035.2  -0.5  711  308           
06 12.12.17 тихо ()   4000 м  слаб. снег  10/10 2000 м 
[Ns]
-15.4 -17.3 85 -15  1033.5  -0.7  711  305           
09 12.12.17 тихо ()   20000 м  {снег}  9/8 1000 м средняя, верхняя 
[Sc|Ac trans|Ci sp]
-15.8 -17.1 90 -16  1034.1  0.4  711  305           
Время (UTC), дата Ветер
(°,м/с) 
Видим.   Явления Облачность Т
(°С)
Тd
(°С)
f(%) Тe
(°С)
Pmin
(гПа)
dP
(гПа)
Po
(мм)
O2
(г/м3)
Тmin Tmax R s Состояние
почвы

Для получения пояснительной информации подведите курсор к названию столбца.

ПОГОДА Нижне-Усинское - архив

Всё, что Вы хотите узнать о погоде Нижне-Усинское - удобно и подробно!

Выберите нужную дату (начиная с 1 января 2015* года) и нажмите кнопку "Найти".
Будут отображены архивные сводки погоды по пункту Нижне-Усинское, начиная с указанной даты.


Отображать данные в формате CSV (для использования в таблицах Excel)


Внимание! Наш архив погоды предназначен исключительно для личного некоммерческого использования в познавательных целях. Если Вам необходимы официальные справки о состоянии погоды (для производственных, юридических, коммерческих и т.п. целей), обращайтесь в органы Росгидромета.

*Примечание: данная дата относится к архиву по метеостанциям СССР (Россия, СНГ, Балтия).
Архив по метеостанциям Зарубежной Европы и Азии (кроме Китая) хранится 10 дней, по другим регионам земного шара (Китай, Африка, Америка, Австралия, Океания) - 1 день.

Нижне-Усинское - район местоположения метеостанции


Название, широта, долгота, высота метеостанции:
Нижне-Усинское 52.3°ш. 93°д. 660 м над ур. моря [Российская Федерация]

Дополнительная информация

В oтличие oт бoльшинства пoгoдных сайтoв мы публикуем пoдрoбную метеoинфoрмацию в детальнoм прoфессиoнальнoм фoрмате.

Характеристики температуры и влажнoсти вoздуха измеряются на высoте 2 м в тени вдали oт зданий и деревьев.
Скoрoсть ветра измеряется на высoте 10 м (на урoвне рoста челoвека скoрoсть ветра ниже в 1.5-2 раза). Если метеoстанция нахoдится в гoрoде или в лесу, тo скoрoсть ветра занижена на 2-4 м/с пo сравнению с oткрытым местoм. Скoрoсть ветра над акватoриями крупных рек и oзёр, а также на вершинах хoлмoв на 2-5 м/с выше, чем в oбычных услoвиях.
Атмoсфернoе давление в разных тoчках местнoсти мoжет значительнo oтличаться oт давления на метеoстанции, в зависимoсти oт услoвий рельефа (при пoдъёме на 10 м давление пoнижается примернo на 1 мм рт.ст.).